Location: Mountain View
(37.3861°N, 122.0839°W)
Time: 14:59:30
(UTC-07:00)

ISS - Pass Details

Date: 30 September 2021
Orbit: 417 x 423 km, 51.6° (Epoch: 20 October)

Event Time Altitude Azimuth Distance (km) Brightness Sun altitude
Rises 21:25:08 0° 314° (NW) 2,364 1.0 -30.6°
Reaches altitude 10° 21:27:16 10° 319° (NW) 1,499 -0.3 -31.0°
Enters shadow 21:27:21 11° 320° (NW) 1,470 -0.3 -31.0°
